Regional Weather Roundup
Issued by NWS Sioux Falls, SD

Home | Current Version | Previous Version | Graphics & Text | Print | Product List | Glossary On
Versions: 1 2 3 4 5 6 7 8 9 10 11 12 13 14 15 16 17 18 19 20 21 22 23 24 25 26 27 28 29 30 31 32 33 34 35 36 37 38 39 40 41 42 43 44 45 46 47 48 49 50
000
ASUS43 KFSD 290002
RWRFSD

WEATHER ROUNDUP FOR SE SOUTH DAKOTA/SW MINNESOTA/NW IOWA
NATIONAL WEATHER SERVICE SIOUX FALLS SD
600 PM CST FRI NOV 28 2014

NOTE: "FAIR" INDICATES FEW OR NO CLOUDS BELOW 12,000 FEET WITH NO
SIGNIFICANT WEATHER AND OR OBSTRUCTIONS TO VISIBILITY.


SDZ038>040-050-052>070-290100-
SOUTHEAST SOUTH DAKOTA

CITY           SKY/WX    TMP DP  RH WIND       PRES   REMARKS
CHAMBERLAIN    NOT AVBL
HURON          CLEAR     28  23  81 NE3       29.64F
6HR MIN TEMP:  28; 6HR MAX TEMP:  38;

MADISON        FAIR      27  27 100 E9        29.67R WCI  17
MITCHELL       CLEAR     31  26  82 E7        29.66R WCI  24
6HR MIN TEMP:  31; 6HR MAX TEMP:  42;

SIOUX FALLS    PTCLDY    29  26  89 E6        29.68R WCI  23
6HR MIN TEMP:  29; 6HR MAX TEMP:  35;

WINNER         FAIR      46  30  53 SE8       29.60S
YANKTON        CLEAR     32  27  80 E6        29.65S WCI  26
$$

MNZ071-072-080-081-089-090-097-098-290100-
SOUTHWEST MINNESOTA

CITY           SKY/WX    TMP DP  RH WIND       PRES   REMARKS
FAIRMONT       MOCLDY    25  19  80 SE12      29.74R WCI  14
JACKSON        MOCLDY    23  21  93 SE8       29.73R WCI  14
LUVERNE        PTCLDY    30  27  86 E7        29.69F WCI  23
MARSHALL       PTCLDY    19  16  86 E9        29.75R WCI   9
6HR MIN TEMP:  18; 6HR MAX TEMP:  21;

MONTEVIDEO     MOCLDY    18  16  93 SE7       29.79R WCI   8
PIPESTONE      CLEAR     28  25  86 SE7       29.68R WCI  21
REDWOOD FALLS  CLOUDY    22  17  81 E6        29.77S WCI  14
TRACY          PTCLDY    21  19  91 E6        29.74R WCI  13
WINDOM         MOCLDY    23  21  93 CALM      29.74R
WORTHINGTON    PTCLDY    21  19  93 E6        29.72R WCI  14
$$

IAZ001>003-012>014-020>022-031-032-NEZ013-014-SDZ071-290100-
NORTHWEST IOWA

CITY           SKY/WX    TMP DP  RH WIND       PRES   REMARKS
DENISON        CLEAR     36  34  93 SE6       29.68S
ESTHERVILLE    MOCLDY    22  20  92 SE9       29.73R WCI  12
SIOUX CITY     CLEAR     39  30  70 SE10      29.66F
6HR MIN TEMP:  37; 6HR MAX TEMP:  49;

SPENCER        PTCLDY    29  25  85 SE9       29.71S WCI  20
6HR MIN TEMP:  26; 6HR MAX TEMP:  32;

$$

ABBREVIATIONS USED IN REMARKS
   TC - TEMPERATURE IN CELSIUS
  WCI - WIND CHILL INDEX
   HX - HEAT INDEX
  VSB - VISIBILITY



USA.gov is the U.S. government's official web portal to all federal, state and local government web resources and services.